This is the latest recevied weather packets stored in our database for station/object 9M4GEK-3. If no packets are shown the sender has not sent any weather packets the latest 10 day(s).
| Time | Temp. | Humidity | Pressure | Rain* | Wind** | Luminosity | Snow |
|---|---|---|---|---|---|---|---|
| 1787902561 | 41.67° C | 31% | 1008 hPa | - | - | - | - |
| 1787901661 | 41.67° C | 31% | 1008.1 hPa | - | - | - | - |
| 1787900760 | 42.78° C | 29% | 1008.4 hPa | - | - | - | - |
| 1787899860 | 43.33° C | 29% | 1008.7 hPa | - | - | - | - |
| 1787898961 | 43.89° C | 28% | 1008.9 hPa | - | - | - | - |
| 1787898238 | 43.33° C | 29% | 1009.1 hPa | - | - | - | - |
| 1787898061 | 43.33° C | 29% | 1009.1 hPa | - | - | - | - |
| 1787897160 | 43.89° C | 29% | 1009.4 hPa | - | - | - | - |
| 1787896260 | 41.67° C | 31% | 1009.6 hPa | - | - | - | - |
| 1787895360 | 42.22° C | 30% | 1009.8 hPa | - | - | - | - |
| 1787894461 | 42.78° C | 29% | 1010 hPa | - | - | - | - |
| 1787893561 | 42.78° C | 30% | 1010.2 hPa | - | - | - | - |
| 1787892661 | 43.33° C | 29% | 1010.4 hPa | - | - | - | - |
| 1787891760 | 43.33° C | 29% | 1010.6 hPa | - | - | - | - |
| 1787890860 | 46.11° C | 27% | 1010.9 hPa | - | - | - | - |
| 1787889960 | 46.11° C | 27% | 1011.2 hPa | - | - | - | - |
| 1787889060 | 45° C | 29% | 1011.3 hPa | - | - | - | - |
| 1787888160 | 43.89° C | 31% | 1011.7 hPa | - | - | - | - |
| 1787887260 | 39.44° C | 37% | 1011.5 hPa | - | - | - | - |
| 1787886360 | 41.11° C | 34% | 1011.7 hPa | - | - | - | - |
| 1787885461 | 41.67° C | 33% | 1011.7 hPa | - | - | - | - |
| 1787884561 | 42.78° C | 32% | 1011.8 hPa | - | - | - | - |
| 1787883661 | 41.67° C | 33% | 1012 hPa | - | - | - | - |
| 1787882761 | 41.67° C | 34% | 1012 hPa | - | - | - | - |
| 1787881862 | 41.67° C | 33% | 1011.9 hPa | - | - | - | - |
* Rain since midnight (hover to see other rain measurements)
** Current wind speed in m/s (hover to see current wind gust speed)